Lima, OH

2:49 AM EST on November 18, 2019 (GMT -0500)
Lima Allen County

Weather History for KAOH - October, 2019

Change the Weather History Date:

Sunday, October 13, 2019

  Actual Average (KFDY) Record (KFDY)
Temperature  
Mean Temperature 54 °F -  
Max Temperature 68 °F 63 °F 84 °F (1960)
Min Temperature 42 °F 42 °F 26 °F (1988)
Degree Days  
Heating Degree Days 11    
Growing Degree Days 4 (Base 50)    
Moisture  
Dew Point 33 °F    
Average Humidity 48    
Maximum Humidity 67    
Minimum Humidity 28    
Precipitation  
Precipitation 0.00 in - - ()
Sea Level Pressure  
Sea Level Pressure 29.93 in    
Wind  
Wind Speed 12 mph (SSW)    
Max Wind Speed 25 mph    
Max Gust Speed 36 mph    
Visibility 10 miles    
Events      
Averages and records for this station are not official NWS values.
T = Trace of Precipitation, MM = Missing Value Source: NWS Daily Summary

Daily Weather History Graph

Daily Weather History Graph

Search for Another Location

Airport or City:

Astronomy

Oct. 13, 2019 Rise Set
Actual Time 7:44 AM EDT 6:59 PM EDT
Civil Twilight 7:17 AM EDT 7:26 PM EDT
Nautical Twilight 6:45 AM EDT 7:58 PM EDT
Astronomical Twilight 6:13 AM EDT 8:30 PM EDT
Moon 7:21 PM EDT (10/13) 7:17 AM EDT (10/13)
Length of Visible Light 12h 09m
Length of Day
11h 14m
Full, 100% of the Moon is Illuminated
Oct 13
Full
Oct 13
Full
Oct 21
Last Quarter
Oct 27
New
Nov 4
First Quarter

Hourly Weather History & Observations

Time (EDT) Temp. Windchill Dew Point Humidity Pressure Visibility Wind Dir Wind Speed Gust Speed Precip Events Conditions
12:53 AM 45.0 °F 40.1 °F 30.9 °F 58% 30.02 in - South 9.2 mph - N/A   Clear
1:53 AM 44.1 °F 38.6 °F 30.9 °F 60% 30.01 in - South 10.4 mph - N/A   Clear
2:53 AM 45.0 °F 39.3 °F 30.9 °F 58% 30.01 in - South 11.5 mph - N/A   Clear
3:53 AM 44.1 °F 38.6 °F 30.9 °F 60% 30.00 in - South 10.4 mph - N/A   Clear
4:53 AM 43.0 °F 36.8 °F 30.9 °F 62% 30.00 in 10.0 mi South 11.5 mph - N/A   Clear
5:53 AM 43.0 °F 36.4 °F 30.9 °F 62% 29.99 in 10.0 mi South 12.7 mph - N/A   Clear
6:53 AM 44.1 °F 38.6 °F 30.9 °F 60% 29.99 in 10.0 mi SSW 10.4 mph - N/A   Clear
7:53 AM 42.1 °F 36.6 °F 32.0 °F 67% 29.98 in 10.0 mi South 9.2 mph - N/A   Clear
8:53 AM 45.0 °F 39.3 °F 33.1 °F 63% 29.98 in 10.0 mi SSW 11.5 mph - N/A   Clear
9:53 AM 48.9 °F - 33.1 °F 54% 29.96 in 10.0 mi SSW 13.8 mph 23.0 mph N/A   Clear
10:53 AM 53.1 °F - 34.0 °F 48% 29.96 in - SSW 11.5 mph 25.3 mph N/A   Clear
11:53 AM 57.0 °F - 36.0 °F 45% 29.93 in - SSW 19.6 mph 27.6 mph N/A   Clear
12:53 PM 60.1 °F - 35.1 °F 39% 29.91 in - SSW 16.1 mph 31.1 mph N/A   Clear
1:53 PM 64.0 °F - 35.1 °F 34% 29.88 in - SSW 19.6 mph 29.9 mph N/A   Clear
2:53 PM 66.9 °F - 36.0 °F 32% 29.85 in - SW 18.4 mph 28.8 mph N/A   Clear
3:53 PM 66.9 °F - 33.1 °F 28% 29.84 in - SW 25.3 mph 35.7 mph N/A   Clear
4:53 PM 66.9 °F - 34.0 °F 30% 29.83 in - SW 18.4 mph 28.8 mph N/A   Clear
5:53 PM 66.0 °F - 33.1 °F 29% 29.83 in - WSW 20.7 mph 32.2 mph N/A   Clear
6:53 PM 63.0 °F - 34.0 °F 34% 29.83 in - SSW 9.2 mph - N/A   Clear
8:53 PM 57.9 °F - 36.0 °F 44% 29.88 in - SSW 6.9 mph - N/A   Clear
9:53 PM 57.0 °F - 36.0 °F 45% 29.88 in - SSW 8.1 mph - N/A   Clear
10:53 PM 55.9 °F - 36.0 °F 47% 29.89 in - SW 10.4 mph - N/A   Clear
11:53 PM 54.0 °F - 37.0 °F 53% 29.90 in - WSW 9.2 mph - N/A   Partly Cloudy